Regional Weather Roundup
Issued by NWS

Home | Current Version | Previous Version | Text Only | Print | Product List | Glossary Off
Versions: 1 2 3 4 5 6 7 8 9 10 11 12 13 14 15 16 17 18 19 20 21 22 23 24 25 26 27 28 29 30 31 32 33 34 35 36 37 38 39 40 41 42 43 44 45 46 47 48 49 50

161
ASUS44 KJAN 180403
RWRMS

MISSISSIPPI HOURLY WEATHER ROUNDUP
NATIONAL WEATHER SERVICE JACKSON MS
1100 PM CDT WED SEP 17 2014

NOTE: "FAIR: INDICATES FEW OR NO CLOUDS BELOW 12,000 FEET WITH NO
SIGNIFICANT WEATHER AND/OR OBSTRUCTIONS TO VISIBILITY.

MSZ001>002-007>008-010>013-018>021-025>028-034>036-180500-
NORTHWEST MISSISSIPPI

CITY           SKY/WX    TMP DP  RH WIND       PRES   REMARKS
CLARKSDALE     FAIR      72  70  94 CALM      29.94R
CLEVELAND      FAIR      76  71  85 SE6       29.91S
GREENWOOD      PTCLDY    72  68  87 E3        29.92F
GREENVILLE     CLOUDY    76  68  76 E3        29.91R
GRENADA        FAIR      70  68  94 E3        29.94F
OLIVE BRANCH   CLEAR     66  66 100 CALM      29.97R
OXFORD         FAIR      68  64  88 E5        29.97R
TUNICA         CLOUDY    68  66  94 NE3       29.95S
$$

MSZ003>006-009-014>017-022>024-029>033-037>039-180500-
NORTHEAST MISSISSIPPI

CITY           SKY/WX    TMP DP  RH WIND       PRES   REMARKS
COLUMBUS AFB   CLEAR     70  65  84 CALM      29.95S
CORINTH          N/A     64  63  94 CALM      29.97F
GOLDN TRIANGLE CLEAR     70  63  78 CALM      29.96S
STARKVILLE     FAIR      70  64  83 CALM      29.96R
TUPELO         CLEAR     70  65  84 CALM      29.95S
$$

MSZ040-058-180500-
CENTRAL MISSISSIPPI

CITY           SKY/WX    TMP DP  RH WIND       PRES   REMARKS
JACKSON INTL   PTCLDY    73  70  90 SE5       29.93R
JACKSON HAWKNS MOCLDY    77  69  76 CALM      29.93S
MERIDIAN KEY   CLEAR     72  68  87 CALM      29.95R
MERIDIAN NAS   PTCLDY    71  67  87 CALM      29.95R
RAYMOND        FAIR      72  66  83 CALM      29.93R
VICKSBURG      MOCLDY    73  70  90 CALM      29.92S
$$

MSZ059>079-180500-
SOUTH MISSISSIPPI

CITY           SKY/WX    TMP DP  RH WIND       PRES   REMARKS
BROOKHAVEN     FAIR      73  72  94 CALM      29.96S
COLUMBIA       FAIR      72  72 100 CALM      29.92S
HATTIESBURG    MOCLDY    77  73  87 CALM      29.94R
MCCOMB         MOCLDY    76  73  91 CALM      29.94F
NATCHEZ        CLOUDY    75  72  88 S3        29.94S
PINE BELT      PTCLDY   N/A N/A N/A CALM      29.94F
$$

MSZ080>082-180500-
COASTAL MISSISSIPPI

CITY           SKY/WX    TMP DP  RH WIND       PRES   REMARKS
BILOXI         PTCLDY    79  73  80 VRB2      29.93S
PASCAGOULA     CLEAR     73  72  96 CALM      29.93R
GULFPORT       PTCLDY    77  73  87 NW3       29.93R
$$



USA.gov is the U.S. government's official web portal to all federal, state and local government web resources and services.